Flag for U.S.A. Weather past 2 weeks in Brockton, Massachusetts, U.S.A.

Now
52 °F

Cool.


Feels Like: 48 °F
Forecast: 45 / 63 °F
Wind: 13 mph from Southeast

Location: East Milton

Current Time: Oct 21, 2014 at 8:23:49 AM

Latest Report: Oct 21, 2014 at 7:54 AM


Visibility: N/A

Pressure: 29.99 "Hg

Humidity: 97%

Dew point: 51 °F

Location of BrocktonLocation

Historic Weather in Brockton — Graph

°F

Brockton temperature yesterday

Maximum temperature yesterday: 55 °F (at 2:54 PM)
Minimum temperature yesterday: 33 °F (at 5:54 AM)
Average temperature yesterday: 44 °F

Past Weeks' High & Low Weather Summary

 TemperatureHumidityPressure
High78 °F (Oct 15, 12:54 PM)100% (Oct 7, 1:54 AM)30.39 "Hg (Oct 7, 1:54 AM)
Low33 °F (Oct 20, 5:54 AM)35% (Oct 9, 12:54 PM)29.52 "Hg (Oct 18, 4:54 PM)
Average57 °F75%30.00 "Hg
* Reported Oct 6 6:54 AM — Oct 21 6:54 AM, Brockton, Weather by CustomWeather, © 2014

Note: Actual official high and low records may vary slightly from our data, if they occured in-between our weather recording intervals... More about our weather records

Advertising

Brockton weather history for previous 24 hours

 ConditionsComfort  
Time TempWeatherWind HumidityBarometerVisibility
6:54 AM
Oct 21
51 °FCool.14 mph89%29.98 "HgN/A
5:54 AM51 °FCool.6 mph89%29.99 "HgN/A
4:54 AM49 °FCool.7 mph93%29.99 "HgN/A
3:54 AM50 °FCool.6 mph83%30.00 "HgN/A
2:54 AM50 °FCool.8 mph80%30.01 "HgN/A
1:54 AM50 °FCool.9 mph77%30.02 "HgN/A
12:54 AM49 °FCool.12 mph77%30.02 "HgN/A
11:54 PM
Oct 20
49 °FCool.15 mph74%30.03 "HgN/A
10:54 PM49 °FCool.14 mph71%30.03 "HgN/A
9:54 PM48 °FCool.15 mph68%30.03 "HgN/A
8:54 PM48 °FCool.14 mph66%30.03 "HgN/A
7:54 PM49 °FCool.15 mph61%30.03 "HgN/A
6:54 PM51 °FCool.9 mph52%30.02 "HgN/A
5:54 PM52 °FCool.13 mph49%30.01 "HgN/A
4:54 PM52 °FCool.9 mph45%30.00 "HgN/A
3:54 PM53 °FCool.15 mph41%30.00 "HgN/A
2:54 PM55 °FCool.16 mph39%30.00 "HgN/A
1:54 PM51 °FCool.13 mph44%30.00 "HgN/A
12:54 PM51 °FCool.17 mph44%30.03 "HgN/A
11:54 AM49 °FCool.12 mph50%30.07 "HgN/A
10:54 AM46 °FCool.10 mph51%30.07 "HgN/A
9:54 AM42 °FQuite cool.12 mph60%30.09 "HgN/A
8:54 AM37 °FChilly.8 mph67%30.09 "HgN/A
Weather by CustomWeather, © 2014

See weather overviewHow to use our weather pages